Weather History for Sedona, AZ

Change the Weather History Date:

Sunday, October 20, 2013

  Actual Average Record
Temperature  
Mean Temperature 64 °F -  
Max Temperature 77 °F 74 °F 80 °F (2011)
Min Temperature 50 °F 46 °F 50 °F (2013)
Degree Days  
Heating Degree Days 2    
Growing Degree Days 14 (Base 50)    
Moisture  
Dew Point 19 °F    
Average Humidity 21    
Maximum Humidity 30    
Minimum Humidity 12    
Precipitation  
Precipitation 0.00 in - - ()
Sea Level Pressure  
Sea Level Pressure 30.05 in    
Wind  
Wind Speed 9 mph (East)    
Max Wind Speed 14 mph    
Max Gust Speed 16 mph    
Visibility 10 miles    
Events      
Averages and records for this station are not official NWS values.
T = Trace of Precipitation, MM = Missing Value Source: NWS Daily Summary

Daily Weather History Graph

Daily Weather History Graph

Search for Another Location

Airport:

Trip Planner

Search our weather history database for the weather conditions in past years. The results will help you decide how hot, cold, wet, or windy it might be!

Date:

Astronomy

Oct. 20, 2013 Rise Set
Actual Time 6:37 AM MST 5:45 PM MST
Civil Twilight 6:11 AM MST 6:11 PM MST
Nautical Twilight 5:42 AM MST 6:40 PM MST
Astronomical Twilight 5:13 AM MST 7:10 PM MST
Moon 7:01 PM MST (10/20) 8:14 AM MST (10/20)
Length of Visible Light 11h 59m
Length of Day
11h 08m
Waning Gibbous, 97% of the Moon is Illuminated
Oct 20
Waning Gibbous
Oct 26
Last Quarter
Nov 3
New
Nov 9
First Quarter
Nov 17
Full

Hourly Weather History & Observations

Time (MST) Temp. Dew Point Humidity Pressure Visibility Wind Dir Wind Speed Gust Speed Precip Events Conditions
12:15 AM 53.6 °F 19.4 °F 26% 30.11 in 10.0 mi NE 12.7 mph - N/A   Clear
12:35 AM 53.6 °F 19.4 °F 26% 30.11 in 10.0 mi NE 13.8 mph - N/A   Clear
12:55 AM 51.8 °F 19.4 °F 28% 30.11 in 10.0 mi NE 11.5 mph - N/A   Clear
1:15 AM 51.8 °F 19.4 °F 28% 30.10 in 10.0 mi NE 11.5 mph - N/A   Clear
1:35 AM 51.8 °F 19.4 °F 28% 30.10 in 10.0 mi NE 11.5 mph - N/A   Clear
1:55 AM 51.8 °F 19.4 °F 28% 30.10 in 10.0 mi NE 10.4 mph - N/A   Clear
2:15 AM 51.8 °F 19.4 °F 28% 30.10 in 10.0 mi NNE 9.2 mph - N/A   Clear
2:35 AM 51.8 °F 19.4 °F 28% 30.10 in 10.0 mi NE 11.5 mph - N/A   Clear
2:55 AM 50.0 °F 19.4 °F 30% 30.09 in 10.0 mi NNE 11.5 mph - N/A   Clear
3:15 AM 50.0 °F 19.4 °F 30% 30.08 in 10.0 mi NNE 10.4 mph - N/A   Clear
3:35 AM 50.0 °F 17.6 °F 28% 30.08 in 10.0 mi NE 11.5 mph 16.1 mph N/A   Clear
3:55 AM 51.8 °F 17.6 °F 26% 30.08 in 10.0 mi NE 11.5 mph - N/A   Clear
4:15 AM 51.8 °F 17.6 °F 26% 30.08 in 10.0 mi NE 10.4 mph - N/A   Clear
4:35 AM 51.8 °F 15.8 °F 24% 30.08 in 10.0 mi NE 12.7 mph - N/A   Clear
4:55 AM 51.8 °F 15.8 °F 24% 30.07 in 10.0 mi NE 11.5 mph - N/A   Clear
5:15 AM 50.0 °F 15.8 °F 26% 30.08 in 10.0 mi NE 11.5 mph - N/A   Clear
5:35 AM 50.0 °F 15.8 °F 26% 30.08 in 10.0 mi NE 10.4 mph - N/A   Clear
5:55 AM 50.0 °F 17.6 °F 28% 30.07 in 10.0 mi NE 10.4 mph - N/A   Clear
6:15 AM 50.0 °F 15.8 °F 26% 30.07 in 10.0 mi NE 12.7 mph - N/A   Clear
6:35 AM 50.0 °F 17.6 °F 28% 30.08 in 10.0 mi NE 12.7 mph - N/A   Clear
6:55 AM 50.0 °F 17.6 °F 28% 30.08 in 10.0 mi NE 10.4 mph - N/A   Clear
7:15 AM 51.8 °F 17.6 °F 26% 30.08 in 10.0 mi NE 9.2 mph - N/A   Clear
7:35 AM 51.8 °F 17.6 °F 26% 30.09 in 10.0 mi NE 8.1 mph - N/A   Clear
7:55 AM 53.6 °F 19.4 °F 26% 30.10 in 10.0 mi ENE 5.8 mph - N/A   Clear
8:15 AM 55.4 °F 19.4 °F 25% 30.10 in 10.0 mi ENE 5.8 mph - N/A   Clear
8:35 AM 55.4 °F 19.4 °F 25% 30.10 in 10.0 mi NE 6.9 mph - N/A   Clear
8:55 AM 57.2 °F 21.2 °F 25% 30.10 in 10.0 mi East 6.9 mph - N/A   Clear
9:15 AM 59.0 °F 19.4 °F 22% 30.10 in 10.0 mi NE 3.5 mph - N/A   Clear
9:35 AM 60.8 °F 21.2 °F 22% 30.10 in 10.0 mi Calm Calm - N/A   Clear
9:55 AM 62.6 °F 23.0 °F 22% 30.09 in 10.0 mi SSE 3.5 mph - N/A   Clear
10:15 AM 64.4 °F 23.0 °F 21% 30.09 in 10.0 mi South 4.6 mph - N/A   Clear
10:35 AM 64.4 °F 23.0 °F 21% 30.08 in 10.0 mi South 5.8 mph - N/A   Clear
10:55 AM 68.0 °F 19.4 °F 16% 30.08 in 10.0 mi South 6.9 mph - N/A   Clear
11:15 AM 66.2 °F 19.4 °F 17% 30.07 in 10.0 mi SSW 5.8 mph - N/A   Clear
11:35 AM 66.2 °F 19.4 °F 17% 30.06 in 10.0 mi South 4.6 mph - N/A   Clear
11:55 AM 69.8 °F 21.2 °F 16% 30.06 in 10.0 mi South 4.6 mph - N/A   Clear
12:15 PM 69.8 °F 21.2 °F 16% 30.06 in 10.0 mi Calm Calm - N/A   Clear
12:35 PM 68.0 °F 19.4 °F 16% 30.05 in 10.0 mi Calm Calm - N/A   Clear
12:55 PM 71.6 °F 21.2 °F 15% 30.03 in 10.0 mi SSW 3.5 mph - N/A   Clear
1:15 PM 71.6 °F 19.4 °F 14% 30.02 in 10.0 mi South 4.6 mph - N/A   Clear
1:35 PM 75.2 °F 19.4 °F 12% 30.01 in 10.0 mi South 6.9 mph - N/A   Clear
1:55 PM 75.2 °F 19.4 °F 12% 30.01 in 10.0 mi SSE 5.8 mph - N/A   Clear
2:15 PM 73.4 °F 19.4 °F 13% 30.00 in 10.0 mi NW 3.5 mph - N/A   Clear
2:35 PM 73.4 °F 19.4 °F 13% 30.00 in 10.0 mi South 3.5 mph - N/A   Clear
2:55 PM 73.4 °F 19.4 °F 13% 29.99 in 10.0 mi SSW 5.8 mph - N/A   Clear
3:15 PM 75.2 °F 21.2 °F 13% 29.99 in 10.0 mi SW 3.5 mph - N/A   Clear
3:35 PM 77.0 °F 21.2 °F 12% 29.98 in 7.0 mi SSW 5.8 mph - N/A   Clear
3:55 PM 75.2 °F 19.4 °F 12% 29.98 in 10.0 mi SSW 4.6 mph - N/A   Clear
4:15 PM 75.2 °F 19.4 °F 12% 29.98 in 10.0 mi SSW 4.6 mph - N/A   Clear
4:35 PM 73.4 °F 19.4 °F 13% 29.98 in 10.0 mi SW 4.6 mph - N/A   Clear
4:55 PM 73.4 °F 17.6 °F 12% 29.98 in 10.0 mi SSW 4.6 mph - N/A   Clear
5:15 PM 71.6 °F 17.6 °F 13% 29.98 in 10.0 mi SW 3.5 mph - N/A   Clear
5:35 PM 69.8 °F 17.6 °F 14% 29.98 in 10.0 mi South 3.5 mph - N/A   Clear
5:55 PM 68.0 °F 17.6 °F 15% 29.98 in 10.0 mi South 5.8 mph - N/A   Clear
6:15 PM 68.0 °F 17.6 °F 15% 29.99 in 10.0 mi SW 6.9 mph - N/A   Clear
6:35 PM 66.2 °F 17.6 °F 15% 30.00 in 10.0 mi South 5.8 mph - N/A   Clear
6:55 PM 64.4 °F 19.4 °F 18% 30.00 in 10.0 mi South 6.9 mph - N/A   Clear
7:15 PM 64.4 °F 19.4 °F 18% 30.01 in 10.0 mi South 6.9 mph - N/A   Clear
7:35 PM 62.6 °F 19.4 °F 19% 30.02 in 10.0 mi SSE 3.5 mph - N/A   Clear
7:55 PM 62.6 °F 19.4 °F 19% 30.02 in 10.0 mi South 8.1 mph - N/A   Clear
8:15 PM 60.8 °F 19.4 °F 20% 30.03 in 10.0 mi SSE 4.6 mph - N/A   Clear
8:35 PM 62.6 °F 19.4 °F 19% 30.03 in 10.0 mi Calm Calm - N/A   Clear
8:55 PM 62.6 °F 19.4 °F 19% 30.03 in 10.0 mi Calm Calm - N/A   Clear
9:15 PM 59.0 °F 21.2 °F 23% 30.03 in 10.0 mi Calm Calm - N/A   Clear
9:35 PM 59.0 °F 21.2 °F 23% 30.04 in 10.0 mi NE 5.8 mph - N/A   Clear
9:55 PM 57.2 °F 21.2 °F 25% 30.04 in 10.0 mi NE 4.6 mph - N/A   Clear
10:15 PM 55.4 °F 21.2 °F 26% 30.05 in 10.0 mi NE 6.9 mph - N/A   Clear
10:35 PM 55.4 °F 21.2 °F 26% 30.06 in 10.0 mi NNE 8.1 mph - N/A   Clear
10:55 PM 53.6 °F 21.2 °F 28% 30.06 in 10.0 mi NE 9.2 mph - N/A   Clear
11:15 PM 55.4 °F 21.2 °F 26% 30.06 in 10.0 mi NNE 8.1 mph - N/A   Clear
11:35 PM 55.4 °F 19.4 °F 25% 30.06 in 10.0 mi NE 8.1 mph - N/A   Clear
11:55 PM 53.6 °F 19.4 °F 26% 30.06 in 10.0 mi NNE 10.4 mph - N/A   Clear